Kenora, Ontario

5:37 AM CDT on April 26, 2017 (GMT -0500)
Kenora

Weather History for CYQK - January, 2013

Change the Weather History Date:

Sunday, January 27, 2013

  Actual Average Record
Temperature  
Mean Temperature 12 °F -  
Max Temperature 22 °F 15 °F 41 °F (2006)
Min Temperature 1 °F -4 °F -25 °F (2014)
Degree Days  
Heating Degree Days 54    
Moisture  
Dew Point 8 °F    
Average Humidity 75    
Maximum Humidity 93    
Minimum Humidity 10    
Precipitation  
Precipitation 0.00 in 0.03 in - ()
Sea Level Pressure  
Sea Level Pressure 30.03 in    
Wind  
Wind Speed 6 mph ()    
Max Wind Speed 9 mph    
Max Gust Speed -    
Visibility 15.0 miles    
Events      
Averages and records for this station are not official NWS values.
T = Trace of Precipitation, MM = Missing Value Source: Averaged Metar Reports

Daily Weather History Graph

Daily Weather History Graph

Search for Another Location

Airport or City:

Trip Planner

Search our weather history database for the weather conditions in past years. The results will help you decide how hot, cold, wet, or windy it might be!

Date:

Astronomy

Jan. 27, 2013 Rise Set
Actual Time 7:56 AM CST 5:04 PM CST
Civil Twilight 7:21 AM CST 5:39 PM CST
Nautical Twilight 6:42 AM CST 6:18 PM CST
Astronomical Twilight 6:04 AM CST 6:56 PM CST
Moon 6:10 PM CST (1/27) 7:41 AM CST (1/27)
Length of Visible Light 10h 18m
Length of Day
9h 08m
Full, 100% of the Moon is Illuminated
Jan 27
Full
Feb 3
Last Quarter
Feb 10
New
Feb 17
First Quarter
Feb 25
Full

Hourly Weather History & Observations

Time (CST) Temp. Windchill Dew Point Humidity Pressure Visibility Wind Dir Wind Speed Gust Speed Precip Events Conditions
12:00 AM 8 °F - 2 °F 68% 30.14 in 15 mi SSE 8.1 mph - -   Overcast
12:00 AM 8.6 °F -4.7 °F 3.2 °F 79% 30.14 in 15.0 mi SSE 9.2 mph - N/A   Overcast
1:00 AM 8.6 °F -2.6 °F 3.2 °F 79% 30.14 in 15.0 mi South 6.9 mph - N/A   Overcast
2:00 AM 6.8 °F -4.8 °F 3.2 °F 85% 30.13 in 15.0 mi SSE 6.9 mph - N/A   Mostly Cloudy
3:00 AM 6.8 °F -4.8 °F 3.2 °F 85% 30.12 in 15.0 mi SSE 6.9 mph - N/A   Mostly Cloudy
4:00 AM 6.8 °F -3.5 °F 1.4 °F 79% 30.11 in 15.0 mi SSE 5.8 mph - N/A   Mostly Cloudy
5:00 AM 5.0 °F -5.6 °F 1.4 °F 85% 30.10 in 15.0 mi South 5.8 mph - N/A   Mostly Cloudy
6:00 AM 6 °F - 2 °F 76% 30.10 in 15 mi SSE 5.8 mph - -   Partly Cloudy
6:00 AM 6.8 °F -3.5 °F 1.4 °F 79% 30.10 in 15.0 mi SSE 5.8 mph - N/A   Mostly Cloudy
7:00 AM 6.8 °F -3.5 °F 1.4 °F 79% 30.09 in 15.0 mi SSE 5.8 mph - N/A   Partly Cloudy
8:00 AM 5.0 °F -5.6 °F 1.4 °F 85% 30.08 in 15.0 mi SE 5.8 mph - N/A   Partly Cloudy
9:00 AM 57.2 °F - 1.4 °F 10% 30.03 in 15.0 mi SE 3.5 mph - N/A   Partly Cloudy
10:00 AM 6.8 °F -0.1 °F 1.4 °F 79% 30.03 in 15.0 mi SE 3.5 mph - N/A   Partly Cloudy
11:00 AM 14.0 °F 6.5 °F 5.0 °F 67% 30.03 in 15.0 mi SSE 4.6 mph - N/A   Partly Cloudy
12:00 PM 17 °F - 8 °F 57% 30.04 in 15 mi SSE 5.8 mph - -   Clear
12:00 PM 17.6 °F 8.2 °F 8.6 °F 68% 30.04 in 15.0 mi SE 6.9 mph - N/A   Partly Cloudy
1:00 PM 19.4 °F 9.5 °F 10.4 °F 68% 30.02 in 15.0 mi East 8.1 mph - N/A   Scattered Clouds
2:00 PM 21.2 °F 14.9 °F 12.2 °F 68% 30.01 in 15.0 mi East 4.6 mph - N/A   Mostly Cloudy
3:00 PM 23.0 °F 13.9 °F 15.8 °F 74% 29.97 in 15.0 mi East 8.1 mph - N/A   Mostly Cloudy
4:00 PM 23.0 °F 13.1 °F 15.8 °F 74% 29.97 in 15.0 mi East 9.2 mph - N/A   Overcast
5:00 PM 21.2 °F 10.9 °F 15.8 °F 80% 29.96 in 15.0 mi East 9.2 mph - N/A   Overcast
6:00 PM 20 °F - 15 °F 72% 29.97 in 15 mi ESE 8.1 mph - -   Overcast
6:00 PM 21.2 °F 12.6 °F 15.8 °F 80% 29.97 in 15.0 mi ESE 6.9 mph - N/A   Overcast
7:00 PM 19.4 °F 9.5 °F 14.0 °F 80% 29.97 in 15.0 mi East 8.1 mph - N/A   Mostly Cloudy
8:00 PM 15.8 °F 4.2 °F 14.0 °F 93% 29.95 in 15.0 mi East 9.2 mph - N/A   Mostly Cloudy
9:00 PM 17.6 °F 6.4 °F 14.0 °F 86% 29.88 in 15.0 mi East 9.2 mph - N/A   Mostly Cloudy
10:00 PM 19.4 °F 10.4 °F 15.8 °F 86% 29.88 in 15.0 mi ESE 6.9 mph - N/A   Mostly Cloudy
11:00 PM 21.2 °F 13.6 °F 17.6 °F 86% 29.87 in 15.0 mi East 5.8 mph - N/A   Mostly Cloudy